Location: Avenches
(46.8809°N, 7.0410°E)
Time: 01:28:49
(UTC+00:00)

SeaSat 1 - Pass Details

Date: 30 March 2020
Orbit: 745 x 746 km, 108.0° (Epoch: 30 May)

Event Time Altitude Azimuth Distance (km) Brightness Sun altitude
Rises 18:44:05 0° 22° (NNE) 3,200 5.6 -8.4°
Reaches altitude 10° 18:46:28 10° 16° (NNE) 2,272 5.0 -8.8°
Maximum altitude 18:51:02 40° 308° (NW) 1,099 4.0 -9.5°
Drops below altitude 10° 18:55:36 10° 240° (WSW) 2,260 5.6 -10.3°
Sets 18:57:58 0° 233° (SW) 3,181 6.2 -10.7°
